Terminal Aerodrome Forecast
Issued by NWS

Home | Current Version | Previous Version | Text Only | Print | Product List | Glossary On
Versions: 1 2 3 4 5 6 7 8 9 10 11 12 13 14 15 16 17 18 19
000
FTUS45 KFGZ 211100
TAFGCN
TAF
KGCN 211136Z 2112/2212 VRB03KT P6SM SCT100
     FM211900 21009KT P6SM VCTS SCT060CB BKN100
      TEMPO 2121/2201 VRB15G25KT 4SM TSRA BKN040CB
     FM220100 VRB02KT P6SM SCT045 BKN080
      TEMPO 2201/2205 VRB15G25KT 2SM TSRA BR OVC030CB=

USA.gov is the U.S. government's official web portal to all federal, state and local government web resources and services.